EXS5UW EGBB-LEPA

Flight info

Callsign EXS5UW
Flight time 2h 4m
Altitude 35000
Route ADMEX Y321 CPT UN859 SOPIL DCT BALAN DCT EVPOK DCT NARAK DCT GAI DCT LOMRA DCT ROCAN DCT IBRAP N13 LORES
Aircraft A21N/M-SDE2E3FGHIRWXY/LB1

Departure

Time 2026-05-05 16:37
Airport Birmingham Airport (EGBB)

Arrival

Time 2026-05-05 18:41
Airport Palma de Mallorca Airport (LEPA)
Time Latitude Longitude Altitude Speed Heading
2026-05-05 16:13 52.44969 -1.73476 329 ft 0 kts 356°
2026-05-05 16:30 52.44955 -1.73474 325 ft 3 kts 355°
2026-05-05 16:31 52.44933 -1.73471 327 ft 3 kts 345°
2026-05-05 16:31 52.44916 -1.73453 325 ft 3 kts 301°
2026-05-05 16:31 52.44910 -1.73430 325 ft 2 kts 270°
2026-05-05 16:31 52.44910 -1.73459 326 ft 2 kts 270°
2026-05-05 16:32 52.44907 -1.73486 329 ft 0 kts 250°
2026-05-05 16:34 52.44900 -1.73518 329 ft 7 kts 251°
2026-05-05 16:34 52.44879 -1.73602 327 ft 9 kts 235°
2026-05-05 16:35 52.44833 -1.73680 328 ft 10 kts 202°
2026-05-05 16:35 52.44758 -1.73713 329 ft 12 kts 205°
2026-05-05 16:35 52.44700 -1.73819 330 ft 14 kts 236°
2026-05-05 16:35 52.44647 -1.73949 330 ft 6 kts 248°
2026-05-05 16:36 52.44671 -1.74006 332 ft 8 kts 319°
2026-05-05 16:36 52.44722 -1.74065 331 ft 15 kts 325°
2026-05-05 16:36 52.45013 -1.74389 333 ft 86 kts 325°
2026-05-05 16:36 52.45672 -1.75123 329 ft 143 kts 326°
2026-05-05 16:37 52.46544 -1.76081 737 ft 152 kts 328°
2026-05-05 16:37 52.47134 -1.76731 1159 ft 155 kts 327°
2026-05-05 16:37 52.47686 -1.77365 1559 ft 156 kts 326°
2026-05-05 16:38 52.48632 -1.78424 1998 ft 176 kts 331°
2026-05-05 16:38 52.49753 -1.79422 2413 ft 194 kts 335°
2026-05-05 16:38 52.51119 -1.79768 2846 ft 213 kts 12°
2026-05-05 16:38 52.52512 -1.78608 3140 ft 243 kts 40°
2026-05-05 16:39 52.53555 -1.76294 3711 ft 260 kts 65°
2026-05-05 16:39 52.54001 -1.73385 4537 ft 267 kts 84°
2026-05-05 16:39 52.53818 -1.70417 5426 ft 267 kts 108°
2026-05-05 16:39 52.53021 -1.67583 6091 ft 278 kts 121°
2026-05-05 16:40 52.51842 -1.65111 6999 ft 277 kts 135°
2026-05-05 16:40 52.50955 -1.63703 7442 ft 282 kts 137°
2026-05-05 16:40 52.49388 -1.61292 8326 ft 285 kts 137°
2026-05-05 16:40 52.47961 -1.59052 9158 ft 289 kts 137°
2026-05-05 16:41 52.46493 -1.56745 9983 ft 292 kts 139°
2026-05-05 16:41 52.44857 -1.54800 10548 ft 303 kts 149°
2026-05-05 16:41 52.43613 -1.53574 10770 ft 317 kts 150°
2026-05-05 16:41 52.43158 -1.53136 10848 ft 322 kts 150°
2026-05-05 16:42 52.41188 -1.51235 11329 ft 335 kts 150°
2026-05-05 16:42 52.39203 -1.49306 12058 ft 339 kts 150°
2026-05-05 16:42 52.37145 -1.47311 12841 ft 342 kts 152°
2026-05-05 16:42 52.34946 -1.45872 13612 ft 343 kts 168°
2026-05-05 16:43 52.32594 -1.45145 14323 ft 345 kts 172°
2026-05-05 16:43 52.30787 -1.44666 14856 ft 347 kts 172°
2026-05-05 16:43 52.28400 -1.44032 15556 ft 350 kts 172°
2026-05-05 16:43 52.26016 -1.43379 16237 ft 353 kts 172°
2026-05-05 16:44 52.23593 -1.42705 16929 ft 355 kts 171°
2026-05-05 16:44 52.21150 -1.42020 17618 ft 358 kts 171°
2026-05-05 16:44 52.18680 -1.41325 18286 ft 361 kts 171°
2026-05-05 16:44 52.16203 -1.40626 18854 ft 364 kts 171°
2026-05-05 16:45 52.13759 -1.39936 19419 ft 366 kts 172°
2026-05-05 16:45 52.11245 -1.39225 19994 ft 368 kts 172°
2026-05-05 16:45 52.08713 -1.38513 20560 ft 371 kts 172°
2026-05-05 16:45 52.06167 -1.37797 21123 ft 373 kts 172°
2026-05-05 16:46 52.03596 -1.37076 21683 ft 375 kts 172°
2026-05-05 16:46 52.01053 -1.36363 22198 ft 377 kts 173°
2026-05-05 16:46 51.98431 -1.35630 22772 ft 380 kts 173°
2026-05-05 16:46 51.95861 -1.34913 23289 ft 382 kts 173°
2026-05-05 16:47 51.93241 -1.34183 23776 ft 384 kts 173°
2026-05-05 16:47 51.90584 -1.33442 24218 ft 387 kts 173°
2026-05-05 16:47 51.87918 -1.32696 24646 ft 390 kts 173°
2026-05-05 16:47 51.85240 -1.31947 25076 ft 392 kts 173°
2026-05-05 16:48 51.82546 -1.31198 25502 ft 394 kts 172°
2026-05-05 16:48 51.79833 -1.30443 25911 ft 397 kts 172°
2026-05-05 16:48 51.77103 -1.29685 26315 ft 399 kts 172°
2026-05-05 16:48 51.74358 -1.28924 26709 ft 401 kts 172°
2026-05-05 16:49 51.71641 -1.28173 27086 ft 403 kts 172°
2026-05-05 16:49 51.68865 -1.27408 27464 ft 405 kts 172°
2026-05-05 16:49 51.66085 -1.26642 27837 ft 407 kts 172°
2026-05-05 16:49 51.63273 -1.25865 28202 ft 410 kts 172°
2026-05-05 16:50 51.60464 -1.25090 28551 ft 412 kts 172°
2026-05-05 16:50 51.57636 -1.24313 28904 ft 413 kts 172°
2026-05-05 16:50 51.54786 -1.23530 29249 ft 415 kts 172°
2026-05-05 16:50 51.51940 -1.22750 29599 ft 417 kts 172°
2026-05-05 16:51 51.49131 -1.21777 29930 ft 420 kts 164°
2026-05-05 16:51 51.46403 -1.20054 30211 ft 423 kts 158°
2026-05-05 16:51 51.43726 -1.18070 30506 ft 425 kts 156°
2026-05-05 16:51 51.41043 -1.16052 30791 ft 427 kts 156°
2026-05-05 16:52 51.38344 -1.14040 31056 ft 428 kts 157°
2026-05-05 16:52 51.35637 -1.12041 31324 ft 429 kts 157°
2026-05-05 16:52 51.32941 -1.10058 31595 ft 430 kts 157°
2026-05-05 16:52 51.30217 -1.08063 31926 ft 430 kts 157°
2026-05-05 16:53 51.27511 -1.06083 32275 ft 429 kts 157°
2026-05-05 16:53 51.24800 -1.04102 32607 ft 428 kts 157°
2026-05-05 16:53 51.22306 -1.02281 32903 ft 427 kts 157°
2026-05-05 16:53 51.19609 -1.00315 33232 ft 426 kts 156°
2026-05-05 16:54 51.16916 -0.98356 33514 ft 426 kts 156°
2026-05-05 16:54 51.14224 -0.96401 33818 ft 425 kts 156°
2026-05-05 16:54 51.11536 -0.94447 34069 ft 424 kts 156°
2026-05-05 16:54 51.08848 -0.92495 34257 ft 424 kts 156°
2026-05-05 16:55 51.06166 -0.90549 34440 ft 425 kts 156°
2026-05-05 16:55 51.03551 -0.88658 34604 ft 425 kts 156°
2026-05-05 16:55 51.00882 -0.86736 34777 ft 425 kts 156°
2026-05-05 16:55 50.98191 -0.84798 34927 ft 427 kts 156°
2026-05-05 16:56 50.92746 -0.80881 34940 ft 436 kts 156°
2026-05-05 16:56 50.87174 -0.76878 34935 ft 442 kts 156°
2026-05-05 16:57 50.81851 -0.72007 34923 ft 443 kts 148°
2026-05-05 16:57 50.76687 -0.66709 34920 ft 442 kts 148°
2026-05-05 16:58 50.71552 -0.61481 34922 ft 442 kts 148°
2026-05-05 16:58 50.66379 -0.56242 34925 ft 442 kts 148°
2026-05-05 16:59 50.61205 -0.51015 34923 ft 441 kts 149°
2026-05-05 16:59 50.56039 -0.45810 34916 ft 441 kts 149°
2026-05-05 17:00 50.50904 -0.40650 34914 ft 441 kts 149°
2026-05-05 17:00 50.45721 -0.35455 34912 ft 442 kts 149°
2026-05-05 17:01 50.40539 -0.30289 34912 ft 442 kts 149°
2026-05-05 17:01 50.35354 -0.25114 34908 ft 442 kts 149°
2026-05-05 17:02 50.30205 -0.19988 34904 ft 441 kts 149°
2026-05-05 17:02 50.25026 -0.14849 34909 ft 441 kts 149°
2026-05-05 17:03 50.19856 -0.09736 34904 ft 440 kts 149°
2026-05-05 17:03 50.14679 -0.04627 34896 ft 440 kts 150°
2026-05-05 17:04 50.09427 0.00047 34894 ft 437 kts 160°
2026-05-05 17:04 50.03604 0.02602 34907 ft 434 kts 167°
2026-05-05 17:05 49.97740 0.04850 34897 ft 434 kts 167°
2026-05-05 17:05 49.91882 0.07136 34899 ft 434 kts 167°
2026-05-05 17:06 49.86077 0.09410 34900 ft 434 kts 167°
2026-05-05 17:06 49.80662 0.11529 34889 ft 434 kts 167°
2026-05-05 17:07 49.74809 0.13814 34897 ft 434 kts 167°
2026-05-05 17:07 49.68956 0.16088 34901 ft 434 kts 167°
2026-05-05 17:08 49.63150 0.18409 34905 ft 434 kts 166°
2026-05-05 17:08 49.57312 0.20774 34905 ft 434 kts 167°
2026-05-05 17:09 49.51471 0.23120 34905 ft 434 kts 166°
2026-05-05 17:09 49.45627 0.25463 34878 ft 434 kts 167°
2026-05-05 17:10 49.39821 0.27789 34876 ft 434 kts 167°
2026-05-05 17:10 49.33975 0.30119 34877 ft 434 kts 167°
2026-05-05 17:11 49.28157 0.32470 34877 ft 434 kts 166°
2026-05-05 17:11 49.22337 0.34951 34873 ft 434 kts 166°
2026-05-05 17:12 49.16501 0.37417 34873 ft 435 kts 166°
2026-05-05 17:12 49.10713 0.39845 34870 ft 434 kts 166°
2026-05-05 17:13 49.04887 0.42283 34865 ft 434 kts 166°
2026-05-05 17:13 48.99055 0.44719 34868 ft 435 kts 166°
2026-05-05 17:14 48.93219 0.47155 34866 ft 435 kts 166°
2026-05-05 17:14 48.87415 0.49565 34863 ft 435 kts 166°
2026-05-05 17:15 48.81570 0.51990 34860 ft 436 kts 166°
2026-05-05 17:15 48.75706 0.54377 34864 ft 436 kts 167°
2026-05-05 17:16 48.69826 0.56665 34861 ft 436 kts 167°
2026-05-05 17:16 48.63982 0.58949 34860 ft 437 kts 167°
2026-05-05 17:17 48.58100 0.61242 34859 ft 437 kts 167°
2026-05-05 17:17 48.52215 0.63530 34854 ft 437 kts 167°
2026-05-05 17:18 48.46339 0.65901 34858 ft 437 kts 166°
2026-05-05 17:18 48.40468 0.68305 34853 ft 437 kts 166°
2026-05-05 17:19 48.34634 0.70675 34852 ft 437 kts 166°
2026-05-05 17:19 48.28755 0.73055 34848 ft 437 kts 166°
2026-05-05 17:20 48.22878 0.75414 34845 ft 437 kts 166°
2026-05-05 17:20 48.16990 0.77724 34841 ft 437 kts 167°
2026-05-05 17:21 48.11148 0.80019 34847 ft 438 kts 167°
2026-05-05 17:22 48.02307 0.83488 34836 ft 437 kts 167°
2026-05-05 17:22 47.96422 0.85791 34835 ft 437 kts 167°
2026-05-05 17:23 47.90531 0.88090 34832 ft 437 kts 167°
2026-05-05 17:23 47.84685 0.90359 34830 ft 437 kts 167°
2026-05-05 17:24 47.78799 0.92635 34833 ft 437 kts 167°
2026-05-05 17:24 47.72914 0.94912 34830 ft 437 kts 167°
2026-05-05 17:25 47.67029 0.97178 34835 ft 437 kts 167°
2026-05-05 17:25 47.61142 0.99446 34834 ft 437 kts 167°
2026-05-05 17:26 47.55303 1.01696 34840 ft 437 kts 167°
2026-05-05 17:26 47.49422 1.03946 34835 ft 436 kts 167°
2026-05-05 17:27 47.43537 1.06092 34839 ft 435 kts 172°
2026-05-05 17:27 47.37518 1.06399 34847 ft 433 kts 182°
2026-05-05 17:28 47.31541 1.06207 34846 ft 432 kts 182°
2026-05-05 17:28 47.25527 1.06052 34842 ft 432 kts 182°
2026-05-05 17:29 47.19519 1.05911 34843 ft 432 kts 182°
2026-05-05 17:29 47.13511 1.05769 34840 ft 432 kts 182°
2026-05-05 17:30 47.07546 1.05633 34847 ft 432 kts 182°
2026-05-05 17:30 47.01538 1.05484 34838 ft 432 kts 182°
2026-05-05 17:31 46.95528 1.05227 34950 ft 435 kts 181°
2026-05-05 17:31 46.89399 1.04951 34876 ft 446 kts 181°
2026-05-05 17:32 46.83211 1.04688 34854 ft 449 kts 181°
2026-05-05 17:32 46.76965 1.04424 34853 ft 449 kts 181°
2026-05-05 17:33 46.70725 1.04159 34848 ft 449 kts 181°
2026-05-05 17:33 46.64481 1.03889 34850 ft 449 kts 182°
2026-05-05 17:34 46.58274 1.03631 34850 ft 449 kts 182°
2026-05-05 17:34 46.52037 1.03484 34850 ft 449 kts 176°
2026-05-05 17:35 46.45907 1.05179 34862 ft 449 kts 167°
2026-05-05 17:35 46.39826 1.07270 34863 ft 449 kts 167°
2026-05-05 17:36 46.33745 1.09312 34867 ft 449 kts 168°
2026-05-05 17:36 46.27697 1.11327 34878 ft 449 kts 168°
2026-05-05 17:37 46.21606 1.13352 34879 ft 449 kts 168°
2026-05-05 17:37 46.15529 1.15362 34889 ft 448 kts 168°
2026-05-05 17:38 46.09445 1.17374 34901 ft 448 kts 168°
2026-05-05 17:38 46.03410 1.19361 34903 ft 448 kts 168°
2026-05-05 17:39 45.97337 1.21364 34902 ft 448 kts 168°
2026-05-05 17:39 45.91261 1.23356 34907 ft 448 kts 168°
2026-05-05 17:40 45.85188 1.25348 34910 ft 448 kts 168°
2026-05-05 17:40 45.79144 1.27331 34902 ft 449 kts 168°
2026-05-05 17:41 45.73060 1.29321 34898 ft 449 kts 168°
2026-05-05 17:41 45.66958 1.31307 34907 ft 449 kts 168°
2026-05-05 17:42 45.60859 1.33280 34908 ft 450 kts 168°
2026-05-05 17:42 45.54798 1.35244 34910 ft 450 kts 168°
2026-05-05 17:43 45.48690 1.37218 34906 ft 450 kts 169°
2026-05-05 17:43 45.42586 1.39187 34907 ft 450 kts 169°
2026-05-05 17:44 45.36475 1.41153 34905 ft 450 kts 169°
2026-05-05 17:44 45.30369 1.43116 34911 ft 450 kts 169°
2026-05-05 17:45 45.24305 1.45058 34905 ft 450 kts 169°
2026-05-05 17:45 45.18202 1.47010 34906 ft 449 kts 169°
2026-05-05 17:46 45.12104 1.48952 34900 ft 449 kts 169°
2026-05-05 17:46 45.06046 1.50884 34903 ft 449 kts 169°
2026-05-05 17:47 44.99966 1.52813 34906 ft 449 kts 169°
2026-05-05 17:47 44.93870 1.54745 34906 ft 448 kts 169°
2026-05-05 17:48 44.87781 1.56671 34906 ft 448 kts 169°
2026-05-05 17:48 44.81728 1.58581 34908 ft 448 kts 170°
2026-05-05 17:49 44.75660 1.60495 34911 ft 448 kts 170°
2026-05-05 17:49 44.69555 1.62413 34914 ft 448 kts 170°
2026-05-05 17:50 44.63472 1.64320 34920 ft 448 kts 170°
2026-05-05 17:50 44.57392 1.66221 34930 ft 447 kts 170°
2026-05-05 17:51 44.51359 1.68109 34925 ft 447 kts 170°
2026-05-05 17:51 44.45299 1.69995 34926 ft 446 kts 171°
2026-05-05 17:52 44.39235 1.71881 34930 ft 446 kts 171°
2026-05-05 17:52 44.33178 1.73757 34933 ft 446 kts 171°
2026-05-05 17:53 44.27105 1.75434 34936 ft 444 kts 174°
2026-05-05 17:53 44.21046 1.76775 34937 ft 444 kts 174°
2026-05-05 17:54 44.14946 1.78120 34939 ft 444 kts 174°
2026-05-05 17:54 44.08851 1.79463 34942 ft 443 kts 174°
2026-05-05 17:55 44.02766 1.80803 34949 ft 443 kts 174°
2026-05-05 17:55 43.96718 1.82130 34952 ft 442 kts 175°
2026-05-05 17:56 43.90611 1.82906 34956 ft 440 kts 179°
2026-05-05 17:56 43.84513 1.83490 34959 ft 439 kts 180°
2026-05-05 17:57 43.78414 1.84080 34965 ft 439 kts 180°
2026-05-05 17:57 43.72359 1.84666 34971 ft 439 kts 180°
2026-05-05 17:58 43.66268 1.85255 34974 ft 439 kts 180°
2026-05-05 17:58 43.60180 1.85844 34979 ft 439 kts 180°
2026-05-05 17:59 43.54091 1.86428 34982 ft 439 kts 180°
2026-05-05 17:59 43.49032 1.86914 34986 ft 438 kts 180°
2026-05-05 18:00 43.41965 1.87595 34981 ft 438 kts 180°
2026-05-05 18:00 43.35875 1.88177 34976 ft 439 kts 180°
2026-05-05 18:01 43.29790 1.88759 34975 ft 439 kts 180°
2026-05-05 18:01 43.23733 1.89336 34976 ft 439 kts 180°
2026-05-05 18:02 43.17630 1.89918 34980 ft 439 kts 180°
2026-05-05 18:02 43.11535 1.90500 34977 ft 439 kts 180°
2026-05-05 18:03 43.06470 1.90983 34969 ft 439 kts 180°
2026-05-05 18:03 43.00380 1.91562 34981 ft 438 kts 181°
2026-05-05 18:04 42.93314 1.92231 34985 ft 438 kts 181°
2026-05-05 18:04 42.88212 1.92712 34985 ft 438 kts 181°
2026-05-05 18:05 42.82204 1.93278 34968 ft 437 kts 181°
2026-05-05 18:05 42.76125 1.93850 34976 ft 436 kts 181°
2026-05-05 18:06 42.70080 1.94419 34956 ft 436 kts 181°
2026-05-05 18:06 42.64039 1.95811 34962 ft 444 kts 171°
2026-05-05 18:07 42.58112 1.97981 34951 ft 444 kts 171°
2026-05-05 18:07 42.52149 2.00136 34947 ft 444 kts 171°
2026-05-05 18:08 42.46187 2.02276 34943 ft 443 kts 171°
2026-05-05 18:08 42.40237 2.04405 34932 ft 443 kts 172°
2026-05-05 18:09 42.34317 2.06520 34922 ft 442 kts 172°
2026-05-05 18:09 42.28385 2.08628 34905 ft 440 kts 172°
2026-05-05 18:10 42.22449 2.10733 34913 ft 440 kts 172°
2026-05-05 18:10 42.16532 2.12828 34907 ft 440 kts 172°
2026-05-05 18:11 42.10653 2.14909 34917 ft 439 kts 172°
2026-05-05 18:11 42.04749 2.16991 34909 ft 438 kts 172°
2026-05-05 18:12 41.98853 2.19067 34895 ft 437 kts 173°
2026-05-05 18:12 41.92980 2.21133 34926 ft 437 kts 173°
2026-05-05 18:13 41.87105 2.23190 34909 ft 436 kts 173°
2026-05-05 18:13 41.81290 2.25225 34902 ft 435 kts 173°
2026-05-05 18:14 41.75437 2.27271 34895 ft 428 kts 173°
2026-05-05 18:14 41.72633 2.28263 34889 ft 416 kts 174°
2026-05-05 18:14 41.69876 2.29227 34890 ft 413 kts 174°
2026-05-05 18:15 41.64322 2.31153 34896 ft 411 kts 174°
2026-05-05 18:15 41.58793 2.33074 34900 ft 411 kts 174°
2026-05-05 18:16 41.53295 2.34991 34566 ft 407 kts 175°
2026-05-05 18:16 41.50551 2.35939 34325 ft 407 kts 175°
2026-05-05 18:16 41.47848 2.36873 34091 ft 406 kts 175°
2026-05-05 18:16 41.45116 2.37820 33848 ft 405 kts 175°
2026-05-05 18:17 41.42399 2.38762 33570 ft 405 kts 175°
2026-05-05 18:17 41.39664 2.39712 33293 ft 405 kts 175°
2026-05-05 18:17 41.36935 2.40656 33021 ft 406 kts 176°
2026-05-05 18:17 41.34201 2.41598 32746 ft 406 kts 176°
2026-05-05 18:18 41.31459 2.42539 32479 ft 407 kts 176°
2026-05-05 18:18 41.28718 2.43481 32212 ft 408 kts 176°
2026-05-05 18:18 41.26004 2.44414 31950 ft 409 kts 176°
2026-05-05 18:18 41.23254 2.45360 31687 ft 409 kts 176°
2026-05-05 18:19 41.20489 2.46308 31429 ft 410 kts 176°
2026-05-05 18:19 41.17726 2.47259 31106 ft 410 kts 176°
2026-05-05 18:19 41.14980 2.48206 30631 ft 405 kts 176°
2026-05-05 18:19 41.12263 2.49138 30145 ft 402 kts 176°
2026-05-05 18:20 41.09567 2.50060 29565 ft 399 kts 176°
2026-05-05 18:20 41.06891 2.50976 28981 ft 396 kts 175°
2026-05-05 18:20 41.04234 2.51886 28446 ft 392 kts 175°
2026-05-05 18:20 41.01606 2.52784 27929 ft 389 kts 175°
2026-05-05 18:21 40.99002 2.53673 27441 ft 384 kts 175°
2026-05-05 18:21 40.96455 2.54542 26948 ft 381 kts 175°
2026-05-05 18:21 40.93902 2.55413 26438 ft 378 kts 175°
2026-05-05 18:21 40.91364 2.56276 25948 ft 375 kts 175°
2026-05-05 18:22 40.88847 2.57132 25465 ft 372 kts 175°
2026-05-05 18:22 40.86346 2.57984 25002 ft 370 kts 175°
2026-05-05 18:22 40.83861 2.58829 24520 ft 368 kts 175°
2026-05-05 18:22 40.81388 2.59668 24027 ft 366 kts 175°
2026-05-05 18:23 40.78926 2.60502 23547 ft 365 kts 175°
2026-05-05 18:23 40.76469 2.61334 22985 ft 364 kts 175°
2026-05-05 18:23 40.74058 2.62151 22468 ft 362 kts 175°
2026-05-05 18:23 40.71623 2.62977 21950 ft 360 kts 175°
2026-05-05 18:24 40.69207 2.63795 21447 ft 358 kts 175°
2026-05-05 18:24 40.66797 2.64609 20959 ft 356 kts 174°
2026-05-05 18:24 40.64409 2.65416 20492 ft 354 kts 174°
2026-05-05 18:24 40.62031 2.66218 20042 ft 351 kts 174°
2026-05-05 18:25 40.59671 2.67010 19604 ft 349 kts 174°
2026-05-05 18:25 40.58116 2.67531 19304 ft 348 kts 174°
2026-05-05 18:25 40.55022 2.68571 18758 ft 346 kts 173°
2026-05-05 18:25 40.52690 2.69354 18352 ft 345 kts 173°
2026-05-05 18:26 40.50371 2.70178 17903 ft 349 kts 169°
2026-05-05 18:26 40.48129 2.71533 17440 ft 357 kts 159°
2026-05-05 18:26 40.45961 2.73115 17003 ft 357 kts 158°
2026-05-05 18:26 40.43795 2.74717 16565 ft 357 kts 158°
2026-05-05 18:27 40.41633 2.76305 16136 ft 356 kts 158°
2026-05-05 18:27 40.39465 2.77885 15693 ft 356 kts 158°
2026-05-05 18:27 40.37326 2.79437 15292 ft 355 kts 157°
2026-05-05 18:27 40.35167 2.81001 14875 ft 354 kts 157°
2026-05-05 18:28 40.30848 2.84120 14033 ft 354 kts 157°
2026-05-05 18:28 40.28693 2.85676 13611 ft 354 kts 156°
2026-05-05 18:28 40.26539 2.87230 13169 ft 353 kts 156°
2026-05-05 18:29 40.24396 2.88775 12750 ft 351 kts 156°
2026-05-05 18:29 40.22258 2.90314 12314 ft 349 kts 156°
2026-05-05 18:29 40.20107 2.91627 12020 ft 332 kts 168°
2026-05-05 18:29 40.17906 2.92090 11836 ft 313 kts 181°
2026-05-05 18:30 40.15807 2.92222 11656 ft 299 kts 182°
2026-05-05 18:30 40.13782 2.92334 11302 ft 287 kts 182°
2026-05-05 18:30 40.11798 2.92452 10750 ft 284 kts 182°
2026-05-05 18:30 40.09827 2.92578 10219 ft 283 kts 182°
2026-05-05 18:31 40.07858 2.92712 9796 ft 284 kts 181°
2026-05-05 18:31 40.05888 2.92849 9328 ft 284 kts 181°
2026-05-05 18:31 40.03909 2.92990 8873 ft 284 kts 181°
2026-05-05 18:31 40.01940 2.93129 8453 ft 283 kts 181°
2026-05-05 18:32 39.99997 2.93269 8062 ft 282 kts 181°
2026-05-05 18:32 39.98057 2.93410 7750 ft 278 kts 181°
2026-05-05 18:32 39.96446 2.93527 7337 ft 281 kts 181°
2026-05-05 18:32 39.94484 2.93668 6924 ft 281 kts 181°
2026-05-05 18:33 39.92536 2.93809 6540 ft 280 kts 181°
2026-05-05 18:33 39.90597 2.93949 6242 ft 278 kts 180°
2026-05-05 18:33 39.88688 2.94088 6082 ft 270 kts 181°
2026-05-05 18:33 39.86867 2.94223 6043 ft 254 kts 181°
2026-05-05 18:34 39.85148 2.94349 6046 ft 244 kts 181°
2026-05-05 18:34 39.83455 2.94469 6048 ft 244 kts 181°
2026-05-05 18:34 39.81775 2.94588 5973 ft 238 kts 181°
2026-05-05 18:34 39.80157 2.94705 5573 ft 237 kts 181°
2026-05-05 18:35 39.78543 2.94820 5178 ft 239 kts 181°
2026-05-05 18:35 39.76875 2.94940 4993 ft 238 kts 181°
2026-05-05 18:35 39.75220 2.95058 4971 ft 239 kts 181°
2026-05-05 18:35 39.73559 2.95178 4969 ft 239 kts 181°
2026-05-05 18:36 39.71907 2.95297 4987 ft 238 kts 181°
2026-05-05 18:36 39.70278 2.95415 4708 ft 233 kts 181°
2026-05-05 18:36 39.68654 2.95531 4296 ft 234 kts 181°
2026-05-05 18:36 39.67030 2.95647 3888 ft 234 kts 181°
2026-05-05 18:37 39.65446 2.95528 3526 ft 228 kts 201°
2026-05-05 18:37 39.64145 2.94523 3260 ft 214 kts 230°
2026-05-05 18:37 39.63238 2.92887 2969 ft 206 kts 243°
2026-05-05 18:37 39.62620 2.91413 2718 ft 192 kts 244°
2026-05-05 18:38 39.62011 2.89965 2530 ft 177 kts 242°
2026-05-05 18:38 39.61388 2.88589 2282 ft 177 kts 240°
2026-05-05 18:38 39.60750 2.87222 2033 ft 177 kts 240°
2026-05-05 18:38 39.60127 2.85894 1776 ft 168 kts 239°
2026-05-05 18:39 39.59539 2.84645 1594 ft 157 kts 239°
2026-05-05 18:39 39.58991 2.83480 1376 ft 147 kts 238°
2026-05-05 18:39 39.58494 2.82426 1163 ft 132 kts 238°
2026-05-05 18:39 39.58018 2.81412 962 ft 131 kts 238°
2026-05-05 18:40 39.57549 2.80400 808 ft 132 kts 237°
2026-05-05 18:40 39.57061 2.79389 615 ft 131 kts 238°
2026-05-05 18:40 39.56586 2.78384 442 ft 130 kts 237°
2026-05-05 18:40 39.56119 2.77386 259 ft 130 kts 238°
2026-05-05 18:41 39.55648 2.76389 111 ft 130 kts 237°
2026-05-05 18:41 39.55188 2.75413 44 ft 120 kts 238°
2026-05-05 18:41 39.54889 2.74788 44 ft 38 kts 237°
2026-05-05 18:41 39.54814 2.74530 44 ft 31 kts 259°
2026-05-05 18:42 39.54805 2.74381 44 ft 11 kts 268°
2026-05-05 18:42 39.54801 2.74272 44 ft 13 kts 268°
2026-05-05 18:42 39.54813 2.74155 44 ft 8 kts 304°
2026-05-05 18:42 39.54861 2.74098 44 ft 10 kts 328°
2026-05-05 18:43 39.54911 2.74057 44 ft 9 kts 328°
2026-05-05 18:43 39.54973 2.74009 44 ft 12 kts 329°
2026-05-05 18:43 39.55060 2.73942 44 ft 19 kts 329°
2026-05-05 18:43 39.55189 2.73839 44 ft 23 kts 328°
2026-05-05 18:44 39.55327 2.73729 41 ft 24 kts 329°
2026-05-05 18:44 39.55463 2.73622 44 ft 22 kts 329°
2026-05-05 18:44 39.55585 2.73526 44 ft 14 kts 328°
2026-05-05 18:44 39.55614 2.73413 44 ft 16 kts 243°
2026-05-05 18:45 39.55552 2.73285 44 ft 18 kts 238°
2026-05-05 18:45 39.55486 2.73146 44 ft 19 kts 239°
2026-05-05 18:45 39.55409 2.73001 44 ft 21 kts 207°
2026-05-05 18:45 39.55283 2.73035 44 ft 18 kts 175°
2026-05-05 18:46 39.55198 2.72950 44 ft 14 kts 206°
2026-05-05 18:46 39.55135 2.72970 41 ft 4 kts 161°
2026-05-05 18:46 39.55130 2.72972 42 ft 0 kts 162°